Location: Three Forks Visitor's Center
(58.3672°N, 155.3776°W)
Time: 12:56:02
(UTC-08:00)

OTV 5 (USA 277) - Visible Passes

Search period start: 14 October 2019 00:00
Search period end: 24 October 2019 00:00
Orbit: 310 x 324 km, 54.5° (Epoch: 08 October)

Date Brightness Start Highest point End Pass type
(mag) Time Alt. Az. Time Alt. Az. Time Alt. Az.
14 Oct ? 06:15:06 20° SE 06:15:06 20° SE 06:16:13 10° ESE visible
14 Oct ? 07:46:00 14° WSW 07:47:32 21° SSW 07:49:43 10° SSE visible
15 Oct ? 06:29:18 21° SE 06:29:18 21° SE 06:30:35 10° SE visible
15 Oct ? 08:00:12 10° WSW 08:01:50 14° SSW 08:03:28 10° S visible
16 Oct ? 06:43:34 19° SSE 06:43:34 19° SSE 06:44:49 10° SE visible
17 Oct ? 06:57:54 15° S 06:57:54 15° S 06:58:47 10° SSE visible
